Location: Julian California
(33.0790°N, 116.6010°W)
Time: 14:51:40
(UTC-07:00)

MetOp-A - Pass Details

Date: 14 June 2018
Orbit: 819 x 821 km, 98.6° (Epoch: 17 October)

Event Time Altitude Azimuth Distance (km) Brightness Sun altitude
Exits shadow 21:51:49 29° 178° (S) 1,458 5.0 -19.9°
Maximum altitude 21:54:36 74° 257° (WSW) 852 4.2 -20.3°
Drops below altitude 10° 21:59:57 10° 343° (NNW) 2,417 7.5 -21.0°
Sets 22:02:19 0° 345° (NNW) 3,352 8.4 -21.3°
